Regional Weather Roundup
Issued by NWS

Home | Current Version | Previous Version | Graphics & Text | Print | Product List | Glossary On
Versions: 1 2 3 4 5 6 7 8 9 10 11 12 13 14 15 16 17 18 19 20 21 22 23 24 25 26 27 28 29 30 31 32 33 34 35 36 37 38 39 40 41 42 43 44 45 46 47 48 49 50
208
ASUS44 KJAN 301103
RWRMS

MISSISSIPPI HOURLY WEATHER ROUNDUP
NATIONAL WEATHER SERVICE JACKSON MS
600 AM CDT SAT AUG 30 2014

NOTE: "FAIR: INDICATES FEW OR NO CLOUDS BELOW 12,000 FEET WITH NO
SIGNIFICANT WEATHER AND/OR OBSTRUCTIONS TO VISIBILITY.

MSZ001>002-007>008-010>013-018>021-025>028-034>036-301200-
NORTHWEST MISSISSIPPI

CITY           SKY/WX    TMP DP  RH WIND       PRES   REMARKS
CLARKSDALE     CLOUDY    75  75 100 CALM      30.03R
CLEVELAND      CLOUDY    75  74  97 S5        30.00R
GREENWOOD      CLOUDY    75  70  84 S7        30.02R
GREENVILLE     LGT RAIN  76  74  93 S3        30.00R
GRENADA        FAIR      73  70  88 S5        30.03R
OLIVE BRANCH   CLEAR     73  73 100 S5        30.02S
OXFORD         FAIR      73  66  78 CALM      30.05S
TUNICA         RAIN      73  72  94 CALM      30.02R
$$

MSZ003>006-009-014>017-022>024-029>033-037>039-301200-
NORTHEAST MISSISSIPPI

CITY           SKY/WX    TMP DP  RH WIND       PRES   REMARKS
BELMONT        LGT RAIN  75  66  74 S5        30.06R
COLUMBUS AFB   CLOUDY    75  70  83 S5        30.05R
CORINTH        DRIZZLE   73  68  83 CALM      30.04R
GOLDN TRIANGLE LGT RAIN  75  68  78 S5        30.05R
STARKVILLE     DRIZZLE   72  70  94 CALM      30.04S
TUPELO         CLOUDY    75  69  81 CALM      30.04R
$$

MSZ040-058-301200-
CENTRAL MISSISSIPPI

CITY           SKY/WX    TMP DP  RH WIND       PRES   REMARKS
JACKSON INTL   CLOUDY    75  73  93 SE3       30.03R
JACKSON HAWKNS CLOUDY    75  73  93 SE6       30.03F
MERIDIAN KEY   NOT AVBL
MERIDIAN NAS   CLOUDY    75  72  90 CALM      30.06R
RAYMOND        FAIR      73  68  83 MISG      30.02S
VICKSBURG      CLOUDY    76  73  91 S6        30.01S
$$

MSZ059>079-301200-
SOUTH MISSISSIPPI

CITY           SKY/WX    TMP DP  RH WIND       PRES   REMARKS
BROOKHAVEN     FAIR      73  73 100 E3        30.04S
COLUMBIA       FAIR      73  73 100 CALM      30.02S
HATTIESBURG    MOCLDY    75  74  96 CALM      30.04S
MCCOMB         CLOUDY    75  73  93 E3        30.01F
NATCHEZ        CLOUDY    75  72  88 E3        30.00F
PINE BELT      MOCLDY    73  72  94 CALM      30.05S
$$

MSZ080>082-301200-
COASTAL MISSISSIPPI

CITY           SKY/WX    TMP DP  RH WIND       PRES   REMARKS
BILOXI         CLOUDY    82  75  78 S7        30.02S
PASCAGOULA     CLOUDY    76  75  97 CALM      30.03S
GULFPORT       MOCLDY    82  76  81 S6        30.01S
$$



USA.gov is the U.S. government's official web portal to all federal, state and local government web resources and services.